Location: Newark
(0.5300°S, 127.4800°E)
Time: 23:22:38
(UTC+00:00)

A-11 Canister half - Pass Details

Date: 25 September 2019
Orbit: 1514 x 1686 km, 47.2° (Epoch: 21 October)

Event Time Altitude Azimuth Distance (km) Brightness Sun altitude
Rises 07:45:23 0° 340° (NNW) 4,671 11.8 24.1°
Reaches altitude 10° 07:48:51 10° 350° (N) 3,709 11.2 23.3°
Maximum altitude 07:56:56 32° 50° (NE) 2,443 9.9 21.2°
Drops below altitude 10° 08:05:15 10° 109° (ESE) 3,832 10.6 19.2°
Sets 08:08:52 0° 118° (ESE) 4,846 11.1 18.3°
